Tracking 19570 objects as of 22-Feb-2019
HD Live streaming from Space Station
objects crossing your sky now

SL-12 R/B(2)

Track SL-12 R/B(2) now!


NORAD ID: 14195
Int'l Code: 1981-102F
Perigee: 35,772.9 km
Apogee: 35,829.3 km
Inclination: 12.4 °
Period: 1,436.5 minutes
Semi major axis: 42172 km
RCS: 2.1503 m2 (large)
Launch date: October 9, 1981
Source: Commonwealth of Independent States (former USSR) (CIS)
Launch site: TYURATAM MISSILE AND SPACE COMPLEX (TTMTR)

Note: This is a ROCKET BODY
aabbcc
Your satellite tracking list
Your tracking list is empty




NASA's NSSDC Master Catalog

Two Line Element Set (TLE):
1 14195U 81102F   19051.03483912 -.00000141 +00000-0 +00000-0 0  9995
2 14195 012.3898 321.9443 0006684 131.3550 228.7526 01.00245682096208
Source of the keplerian elements: AFSPC